Location: Bangkok
(13.7500°N, 100.5170°E)
Time: 12:30:32
(UTC+07:00)

Hubble Space Telescope - Visible Passes

Search period start: 26 February 2017 00:00
Search period end: 08 March 2017 00:00
Orbit: 538 x 542 km, 28.5° (Epoch: 25 February)

Date Brightness Start Highest point End Pass type
(mag) Time Alt. Az. Time Alt. Az. Time Alt. Az.
26 Feb 3.3 20:03:51 10° NNW 20:05:12 11° N 20:05:12 11° N visible
27 Feb 3.3 19:54:37 10° NNW 19:55:31 11° N 19:55:54 10° N visible
28 Feb 3.3 19:45:30 10° N 19:45:45 10° N 19:46:00 10° N visible
02 Mar 3.3 19:25:56 10° N 19:26:15 10° N 19:26:33 10° N visible
03 Mar 3.2 19:15:33 10° N 19:16:29 11° N 19:17:25 10° NNE visible
04 Mar 3.1 19:05:15 10° NNW 19:06:43 12° N 19:08:10 10° NNE visible
05 Mar 3.0 18:55:00 10° NNW 18:56:56 13° N 18:58:52 10° NE visible
05 Mar 3.6 20:34:58 10° NW 20:35:26 13° NW 20:35:26 13° NW visible
06 Mar 2.9 18:44:44 10° NNW 18:47:07 15° NNE 18:49:30 10° NE visible
06 Mar 3.1 20:24:51 10° NW 20:26:14 19° NW 20:26:14 19° NW visible
07 Mar 2.3 20:14:47 10° NW 20:17:06 31° NW 20:17:06 31° NW visible
